LNR023 LFPG-LFBO

Flight info

Callsign LNR023
Flight time 1h 2m
Altitude 35000
Route ERIXU DCT ETAMO DCT GUERE DCT NARAK
Aircraft A320/M-SDE3FGHIRWY/LB1

Departure

Time 2026-05-01 10:32
Airport Charles de Gaulle International Airport (LFPG)

Arrival

Time 2026-05-01 11:34
Airport Toulouse-Blagnac Airport (LFBO)
Time Latitude Longitude Altitude Speed Heading
2026-05-01 09:46 49.00140 2.57624 362 ft 0 kts 357°
2026-05-01 10:17 49.00132 2.57625 364 ft 4 kts 357°
2026-05-01 10:17 49.00105 2.57627 354 ft 4 kts 358°
2026-05-01 10:18 49.00058 2.57604 361 ft 4 kts 62°
2026-05-01 10:18 49.00053 2.57583 362 ft 1 kts 85°
2026-05-01 10:18 49.00053 2.57580 362 ft 0 kts 85°
2026-05-01 10:20 49.00054 2.57585 362 ft 5 kts 85°
2026-05-01 10:20 49.00051 2.57698 357 ft 12 kts 112°
2026-05-01 10:21 48.99984 2.57694 361 ft 12 kts 237°
2026-05-01 10:21 48.99959 2.57350 358 ft 18 kts 265°
2026-05-01 10:21 48.99949 2.57166 356 ft 17 kts 265°
2026-05-01 10:22 48.99930 2.56820 362 ft 16 kts 265°
2026-05-01 10:22 48.99915 2.56523 363 ft 13 kts 265°
2026-05-01 10:23 48.99909 2.56398 354 ft 11 kts 265°
2026-05-01 10:23 48.99898 2.56185 354 ft 9 kts 265°
2026-05-01 10:23 48.99891 2.56052 354 ft 18 kts 265°
2026-05-01 10:24 48.99844 2.55798 360 ft 13 kts 186°
2026-05-01 10:24 48.99783 2.55803 363 ft 0 kts 175°
2026-05-01 10:25 48.99761 2.55806 358 ft 8 kts 175°
2026-05-01 10:26 48.99701 2.55813 354 ft 6 kts 175°
2026-05-01 10:26 48.99699 2.55814 356 ft 0 kts 175°
2026-05-01 10:31 48.99629 2.55836 361 ft 12 kts 148°
2026-05-01 10:31 48.99633 2.56455 356 ft 83 kts 85°
2026-05-01 10:32 48.99796 2.59293 764 ft 155 kts 87°
2026-05-01 10:32 48.99888 2.60951 1427 ft 161 kts 88°
2026-05-01 10:32 49.00068 2.64474 2468 ft 182 kts 88°
2026-05-01 10:33 49.00281 2.68747 3366 ft 216 kts 86°
2026-05-01 10:33 49.00543 2.73767 4212 ft 262 kts 88°
2026-05-01 10:34 49.00686 2.76561 5092 ft 270 kts 87°
2026-05-01 10:34 49.00593 2.79439 6057 ft 272 kts 101°
2026-05-01 10:34 49.00298 2.82297 7031 ft 275 kts 101°
2026-05-01 10:35 48.99673 2.88107 8863 ft 281 kts 101°
2026-05-01 10:35 48.99354 2.91068 9780 ft 285 kts 101°
2026-05-01 10:35 48.99027 2.94085 10562 ft 294 kts 103°
2026-05-01 10:35 48.98259 2.97057 10879 ft 313 kts 126°
2026-05-01 10:36 48.94562 3.00341 12281 ft 324 kts 175°
2026-05-01 10:36 48.92319 2.99855 13119 ft 331 kts 200°
2026-05-01 10:36 48.90371 2.97933 13926 ft 338 kts 217°
2026-05-01 10:37 48.88549 2.95623 14653 ft 342 kts 217°
2026-05-01 10:37 48.84893 2.90912 16068 ft 348 kts 217°
2026-05-01 10:37 48.83038 2.88529 16773 ft 351 kts 217°
2026-05-01 10:38 48.81164 2.86132 17466 ft 354 kts 217°
2026-05-01 10:38 48.79272 2.83724 18162 ft 357 kts 216°
2026-05-01 10:38 48.77353 2.81288 18801 ft 360 kts 216°
2026-05-01 10:38 48.75422 2.78842 19135 ft 363 kts 216°
2026-05-01 10:39 48.73483 2.76390 19223 ft 363 kts 216°
2026-05-01 10:39 48.72194 2.74765 19295 ft 365 kts 216°
2026-05-01 10:39 48.70233 2.72295 19882 ft 367 kts 216°
2026-05-01 10:39 48.68257 2.69808 20481 ft 370 kts 216°
2026-05-01 10:40 48.66264 2.67304 21058 ft 373 kts 216°
2026-05-01 10:40 48.64273 2.64798 21622 ft 376 kts 216°
2026-05-01 10:40 48.62249 2.62252 22169 ft 380 kts 216°
2026-05-01 10:40 48.60207 2.59690 22720 ft 383 kts 216°
2026-05-01 10:41 48.58146 2.57109 23255 ft 386 kts 216°
2026-05-01 10:41 48.56063 2.54502 23777 ft 390 kts 216°
2026-05-01 10:41 48.51847 2.49229 24653 ft 395 kts 216°
2026-05-01 10:42 48.49722 2.46578 25085 ft 398 kts 216°
2026-05-01 10:42 48.47583 2.43908 25522 ft 401 kts 216°
2026-05-01 10:42 48.45457 2.41256 25941 ft 403 kts 216°
2026-05-01 10:42 48.43291 2.38556 26362 ft 405 kts 215°
2026-05-01 10:43 48.41113 2.35848 26796 ft 408 kts 215°
2026-05-01 10:43 48.38914 2.33118 27216 ft 410 kts 215°
2026-05-01 10:43 48.36711 2.30386 27632 ft 412 kts 215°
2026-05-01 10:43 48.34491 2.27635 28032 ft 415 kts 214°
2026-05-01 10:44 48.32131 2.25176 28416 ft 411 kts 204°
2026-05-01 10:44 48.29514 2.23445 28805 ft 408 kts 193°
2026-05-01 10:44 48.26762 2.22497 29179 ft 405 kts 183°
2026-05-01 10:44 48.23951 2.22328 29568 ft 403 kts 173°
2026-05-01 10:45 48.21176 2.22874 29949 ft 403 kts 168°
2026-05-01 10:45 48.18428 2.23550 30345 ft 404 kts 168°
2026-05-01 10:45 48.15646 2.24225 30682 ft 406 kts 168°
2026-05-01 10:45 48.12854 2.24895 31007 ft 407 kts 168°
2026-05-01 10:46 48.10050 2.25562 31328 ft 409 kts 168°
2026-05-01 10:46 48.07216 2.26050 31602 ft 413 kts 174°
2026-05-01 10:46 48.04333 2.26229 31886 ft 415 kts 174°
2026-05-01 10:46 48.01449 2.26411 32298 ft 413 kts 174°
2026-05-01 10:47 47.98577 2.26594 32741 ft 411 kts 174°
2026-05-01 10:47 47.95722 2.26777 33168 ft 410 kts 174°
2026-05-01 10:47 47.92908 2.26958 33585 ft 409 kts 174°
2026-05-01 10:47 47.90033 2.27144 34001 ft 408 kts 174°
2026-05-01 10:48 47.87242 2.27324 34380 ft 407 kts 174°
2026-05-01 10:48 47.84415 2.27503 34679 ft 407 kts 174°
2026-05-01 10:48 47.81569 2.27678 34944 ft 408 kts 175°
2026-05-01 10:48 47.78731 2.27851 35168 ft 410 kts 175°
2026-05-01 10:49 47.75879 2.28029 35245 ft 407 kts 175°
2026-05-01 10:49 47.70253 2.28391 35247 ft 403 kts 175°
2026-05-01 10:50 47.64644 2.28755 35253 ft 403 kts 175°
2026-05-01 10:50 47.59070 2.29097 35253 ft 403 kts 175°
2026-05-01 10:51 47.53461 2.29454 35250 ft 405 kts 175°
2026-05-01 10:51 47.47823 2.29808 35250 ft 405 kts 176°
2026-05-01 10:52 47.42184 2.30150 35250 ft 405 kts 176°
2026-05-01 10:52 47.36539 2.30507 35250 ft 405 kts 175°
2026-05-01 10:53 47.30915 2.30864 35245 ft 407 kts 176°
2026-05-01 10:53 47.25238 2.31216 35242 ft 409 kts 176°
2026-05-01 10:54 47.19550 2.31563 35246 ft 409 kts 176°
2026-05-01 10:54 47.13852 2.31913 35247 ft 410 kts 177°
2026-05-01 10:55 47.08139 2.32268 35235 ft 412 kts 177°
2026-05-01 10:55 47.02395 2.32622 35237 ft 413 kts 177°
2026-05-01 10:56 46.96642 2.32975 35235 ft 414 kts 177°
2026-05-01 10:56 46.90881 2.33333 35225 ft 415 kts 179°
2026-05-01 10:57 46.85134 2.33587 35238 ft 415 kts 185°
2026-05-01 10:57 46.79481 2.32001 35243 ft 414 kts 196°
2026-05-01 10:58 46.73900 2.29825 35248 ft 415 kts 196°
2026-05-01 10:58 46.68313 2.27685 35251 ft 415 kts 196°
2026-05-01 10:59 46.62745 2.25559 35255 ft 415 kts 196°
2026-05-01 10:59 46.57156 2.23424 35258 ft 415 kts 196°
2026-05-01 11:00 46.51572 2.21293 35252 ft 415 kts 197°
2026-05-01 11:00 46.45981 2.19163 35267 ft 415 kts 197°
2026-05-01 11:01 46.40397 2.17035 35272 ft 414 kts 197°
2026-05-01 11:01 46.34813 2.14926 35259 ft 414 kts 197°
2026-05-01 11:02 46.29272 2.12831 35263 ft 414 kts 198°
2026-05-01 11:02 46.23695 2.10719 35266 ft 414 kts 198°
2026-05-01 11:03 46.18090 2.08774 35268 ft 416 kts 191°
2026-05-01 11:03 46.12340 2.07699 35250 ft 416 kts 191°
2026-05-01 11:04 46.06581 2.06639 35253 ft 417 kts 191°
2026-05-01 11:04 46.00831 2.05583 35257 ft 417 kts 191°
2026-05-01 11:05 45.95061 2.04514 35245 ft 417 kts 191°
2026-05-01 11:05 45.89335 2.03456 35255 ft 417 kts 191°
2026-05-01 11:06 45.83568 2.02398 35258 ft 417 kts 191°
2026-05-01 11:06 45.77798 2.01341 35262 ft 418 kts 191°
2026-05-01 11:07 45.69141 1.99766 35263 ft 418 kts 190°
2026-05-01 11:07 45.63374 1.98711 35268 ft 418 kts 190°
2026-05-01 11:08 45.57605 1.97655 35269 ft 418 kts 190°
2026-05-01 11:09 45.48951 1.96089 35263 ft 418 kts 189°
2026-05-01 11:09 45.43179 1.95054 35241 ft 418 kts 190°
2026-05-01 11:10 45.37421 1.94007 34322 ft 415 kts 190°
2026-05-01 11:10 45.34604 1.93492 33775 ft 412 kts 190°
2026-05-01 11:10 45.31778 1.92976 33281 ft 408 kts 189°
2026-05-01 11:10 45.28978 1.92472 32798 ft 404 kts 190°
2026-05-01 11:11 45.26199 1.91976 32310 ft 400 kts 190°
2026-05-01 11:11 45.23433 1.91484 31839 ft 397 kts 190°
2026-05-01 11:11 45.20704 1.90996 31363 ft 393 kts 190°
2026-05-01 11:11 45.17996 1.90510 30904 ft 390 kts 190°
2026-05-01 11:12 45.15315 1.90028 30450 ft 386 kts 190°
2026-05-01 11:12 45.12662 1.89555 29964 ft 383 kts 190°
2026-05-01 11:12 45.10039 1.89089 29544 ft 377 kts 190°
2026-05-01 11:12 45.07455 1.88628 29123 ft 372 kts 190°
2026-05-01 11:13 45.04910 1.88176 28715 ft 366 kts 190°
2026-05-01 11:13 45.02422 1.87733 28322 ft 362 kts 190°
2026-05-01 11:13 44.99943 1.87290 27918 ft 358 kts 190°
2026-05-01 11:13 44.97487 1.86849 27495 ft 354 kts 190°
2026-05-01 11:14 44.95057 1.86412 27116 ft 350 kts 190°
2026-05-01 11:14 44.92653 1.85982 26691 ft 347 kts 190°
2026-05-01 11:14 44.90264 1.85556 26296 ft 344 kts 190°
2026-05-01 11:14 44.87896 1.85137 25867 ft 342 kts 190°
2026-05-01 11:15 44.85535 1.84722 25442 ft 341 kts 190°
2026-05-01 11:15 44.83215 1.84314 25019 ft 339 kts 190°
2026-05-01 11:15 44.80869 1.83900 24569 ft 339 kts 190°
2026-05-01 11:15 44.78531 1.83486 24133 ft 338 kts 190°
2026-05-01 11:16 44.76205 1.83073 23661 ft 337 kts 190°
2026-05-01 11:16 44.73875 1.82660 23191 ft 335 kts 190°
2026-05-01 11:16 44.71571 1.82254 22771 ft 332 kts 190°
2026-05-01 11:16 44.69279 1.81851 22345 ft 330 kts 190°
2026-05-01 11:17 44.67039 1.81457 21937 ft 328 kts 190°
2026-05-01 11:17 44.64779 1.81061 21527 ft 326 kts 190°
2026-05-01 11:17 44.62534 1.80666 21118 ft 324 kts 190°
2026-05-01 11:17 44.60287 1.80269 20712 ft 323 kts 190°
2026-05-01 11:18 44.58088 1.79883 20307 ft 322 kts 189°
2026-05-01 11:18 44.55865 1.79494 19912 ft 321 kts 189°
2026-05-01 11:18 44.53652 1.79107 19516 ft 320 kts 189°
2026-05-01 11:18 44.51441 1.78720 19104 ft 319 kts 189°
2026-05-01 11:19 44.49232 1.78333 18724 ft 319 kts 189°
2026-05-01 11:19 44.47030 1.77947 18297 ft 319 kts 189°
2026-05-01 11:19 44.44832 1.77563 17892 ft 317 kts 189°
2026-05-01 11:19 44.42676 1.77186 17512 ft 316 kts 189°
2026-05-01 11:20 44.40495 1.76806 17115 ft 314 kts 189°
2026-05-01 11:20 44.38330 1.76428 16749 ft 312 kts 189°
2026-05-01 11:20 44.36182 1.76054 16379 ft 310 kts 189°
2026-05-01 11:20 44.34045 1.75680 16009 ft 309 kts 189°
2026-05-01 11:21 44.31916 1.75304 15645 ft 308 kts 189°
2026-05-01 11:21 44.29838 1.74657 15282 ft 305 kts 201°
2026-05-01 11:21 44.27963 1.73391 14929 ft 302 kts 213°
2026-05-01 11:21 44.26228 1.71732 14579 ft 301 kts 215°
2026-05-01 11:22 44.24513 1.70081 14226 ft 300 kts 215°
2026-05-01 11:22 44.22798 1.68436 13847 ft 299 kts 214°
2026-05-01 11:22 44.21089 1.66803 13481 ft 296 kts 214°
2026-05-01 11:22 44.19396 1.65186 13137 ft 294 kts 214°
2026-05-01 11:23 44.17713 1.63582 12797 ft 292 kts 214°
2026-05-01 11:23 44.16043 1.61991 12460 ft 289 kts 214°
2026-05-01 11:23 44.14390 1.60416 12121 ft 287 kts 214°
2026-05-01 11:23 44.12749 1.58849 11783 ft 285 kts 214°
2026-05-01 11:24 44.11120 1.57292 11457 ft 283 kts 214°
2026-05-01 11:24 44.09501 1.55746 11123 ft 281 kts 214°
2026-05-01 11:24 44.06316 1.52710 10473 ft 277 kts 214°
2026-05-01 11:25 44.04730 1.51204 10144 ft 276 kts 214°
2026-05-01 11:25 44.01566 1.48201 9467 ft 273 kts 213°
2026-05-01 11:25 43.99990 1.46710 9142 ft 274 kts 213°
2026-05-01 11:26 43.98947 1.45719 8940 ft 272 kts 214°
2026-05-01 11:26 43.96325 1.41887 8289 ft 276 kts 230°
2026-05-01 11:26 43.95106 1.39813 7967 ft 277 kts 229°
2026-05-01 11:27 43.93882 1.37740 7643 ft 277 kts 230°
2026-05-01 11:27 43.92661 1.35671 7310 ft 277 kts 229°
2026-05-01 11:27 43.91438 1.33601 6980 ft 277 kts 229°
2026-05-01 11:27 43.90217 1.31539 6663 ft 276 kts 230°
2026-05-01 11:28 43.89016 1.29510 6328 ft 273 kts 229°
2026-05-01 11:28 43.87818 1.27490 6001 ft 269 kts 228°
2026-05-01 11:28 43.86624 1.25537 5658 ft 263 kts 221°
2026-05-01 11:29 43.83660 1.22675 4862 ft 256 kts 208°
2026-05-01 11:29 43.82175 1.21350 4553 ft 251 kts 210°
2026-05-01 11:29 43.79097 1.19767 3955 ft 229 kts 166°
2026-05-01 11:30 43.77711 1.20669 3699 ft 217 kts 141°
2026-05-01 11:30 43.76522 1.21921 3449 ft 212 kts 141°
2026-05-01 11:30 43.75369 1.23140 3172 ft 208 kts 141°
2026-05-01 11:30 43.74248 1.24315 2905 ft 198 kts 141°
2026-05-01 11:31 43.73166 1.25448 2662 ft 190 kts 141°
2026-05-01 11:31 43.72141 1.26519 2416 ft 179 kts 141°
2026-05-01 11:31 43.71196 1.27507 2184 ft 161 kts 140°
2026-05-01 11:31 43.70365 1.28376 1972 ft 140 kts 140°
2026-05-01 11:32 43.69622 1.29158 1738 ft 129 kts 141°
2026-05-01 11:32 43.68919 1.29887 1621 ft 125 kts 141°
2026-05-01 11:32 43.68222 1.30618 1450 ft 126 kts 141°
2026-05-01 11:32 43.67528 1.31338 1290 ft 124 kts 141°
2026-05-01 11:33 43.66839 1.32058 1121 ft 124 kts 141°
2026-05-01 11:33 43.66149 1.32776 967 ft 125 kts 141°
2026-05-01 11:33 43.65457 1.33500 801 ft 124 kts 141°
2026-05-01 11:33 43.64766 1.34219 636 ft 123 kts 141°
2026-05-01 11:34 43.64099 1.34921 508 ft 117 kts 140°
2026-05-01 11:34 43.63582 1.35464 489 ft 55 kts 143°
2026-05-01 11:34 43.63400 1.35655 489 ft 29 kts 142°
2026-05-01 11:34 43.63195 1.35867 489 ft 45 kts 142°
2026-05-01 11:35 43.62931 1.36144 487 ft 46 kts 142°
2026-05-01 11:35 43.62694 1.36391 492 ft 40 kts 143°
2026-05-01 11:35 43.62496 1.36594 488 ft 29 kts 141°
2026-05-01 11:35 43.62456 1.36835 489 ft 23 kts 83°
2026-05-01 11:36 43.62475 1.37045 489 ft 23 kts 82°
2026-05-01 11:36 43.62516 1.37258 489 ft 23 kts 54°
2026-05-01 11:36 43.62615 1.37437 487 ft 19 kts 50°
2026-05-01 11:36 43.62729 1.37431 492 ft 21 kts 326°
2026-05-01 11:37 43.62836 1.37321 488 ft 9 kts 332°
2026-05-01 11:37 43.62884 1.37350 491 ft 7 kts 49°
2026-05-01 11:37 43.62911 1.37393 489 ft 0 kts 47°